| time (UTC) | temp C | wind direction | speed KPH | gust KPH | rain 1hr cm | rain 24hr cm | rain mn cm | humidity % | barometer mb |
| 20260506002323 | 22 | 352 | 4.8 | 11.3 | 0.00 | 0.05 | 0.05 | 41 | 1009.2 |
| 20260506001818 | 22 | 117 | 0.0 | 9.7 | 0.00 | 0.05 | 0.05 | 41 | 1009.4 |
| 20260506001316 | 22 | 312 | 8.0 | 14.5 | 0.00 | 0.05 | 0.05 | 41 | 1009.4 |
| 20260506000812 | 23 | 237 | 4.8 | 16.1 | 0.00 | 0.05 | 0.05 | 40 | 1009.0 |
| 20260506000310 | 22 | 345 | 4.8 | 9.7 | 0.00 | 0.05 | 0.05 | 41 | 1009.1 |
| 20260505235807 | 22 | 119 | 6.4 | 12.9 | 0.00 | 0.05 | 0.05 | 40 | 1009.1 |
| 20260505235305 | 23 | 358 | 4.8 | 6.4 | 0.00 | 0.05 | 0.05 | 40 | 1009.0 |
| 20260505234801 | 23 | 8 | 3.2 | 6.4 | 0.00 | 0.05 | 0.05 | 40 | 1009.0 |
| 20260505234259 | 23 | 15 | 3.2 | 9.7 | 0.00 | 0.05 | 0.05 | 39 | 1008.9 |
| 20260505233755 | 23 | 2 | 4.8 | 16.1 | 0.00 | 0.05 | 0.05 | 39 | 1009.0 |
| 20260505233253 | 23 | 284 | 4.8 | 9.7 | 0.00 | 0.05 | 0.05 | 38 | 1009.1 |
| 20260505232750 | 23 | 357 | 0.0 | 3.2 | 0.00 | 0.05 | 0.05 | 38 | 1008.9 |
| 20260505232248 | 23 | 355 | 6.4 | 12.9 | 0.00 | 0.05 | 0.05 | 38 | 1009.0 |
| 20260505231744 | 23 | 341 | 8.0 | 16.1 | 0.00 | 0.05 | 0.05 | 38 | 1009.0 |
| 20260505231243 | 23 | 30 | 1.6 | 12.9 | 0.00 | 0.05 | 0.05 | 38 | 1008.9 |
| 20260505230741 | 23 | 335 | 8.0 | 9.7 | 0.00 | 0.05 | 0.05 | 38 | 1008.7 |
| 20260505230237 | 24 | 301 | 9.7 | 24.1 | 0.00 | 0.05 | 0.05 | 37 | 1008.8 |
| 20260505225734 | 23 | 265 | 3.2 | 20.9 | 0.00 | 0.05 | 0.05 | 38 | 1008.8 |
| 20260505225231 | 24 | 284 | 6.4 | 11.3 | 0.00 | 0.05 | 0.05 | 38 | 1008.8 |
| 20260505224726 | 24 | 196 | 3.2 | 12.9 | 0.00 | 0.05 | 0.05 | 38 | 1008.7 |
| 20260505224224 | 24 | 336 | 1.6 | 8.0 | 0.00 | 0.05 | 0.05 | 37 | 1008.7 |
| 20260505223722 | 24 | 338 | 3.2 | 8.0 | 0.00 | 0.05 | 0.05 | 38 | 1008.5 |
| 20260505223218 | 24 | 7 | 6.4 | 11.3 | 0.00 | 0.05 | 0.05 | 37 | 1008.6 |
| 20260505222714 | 24 | 324 | 8.0 | 12.9 | 0.00 | 0.05 | 0.05 | 37 | 1008.4 |
| 20260505222210 | 25 | 275 | 6.4 | 12.9 | 0.00 | 0.05 | 0.05 | 36 | 1008.4 |
| 20260505221707 | 25 | 315 | 4.8 | 20.9 | 0.00 | 0.05 | 0.05 | 36 | 1008.4 |
| 20260505221204 | 25 | 246 | 3.2 | 29.0 | 0.00 | 0.05 | 0.05 | 35 | 1008.3 |
| 20260505220701 | 25 | 340 | 8.0 | 12.9 | 0.00 | 0.05 | 0.05 | 35 | 1008.3 |
| 20260505220159 | 25 | 255 | 3.2 | 25.7 | 0.00 | 0.05 | 0.05 | 37 | 1008.5 |
| 20260505215656 | 25 | 273 | 8.0 | 11.3 | 0.00 | 0.05 | 0.05 | 35 | 1008.4 |
| 20260505215154 | 25 | 235 | 6.4 | 12.9 | 0.00 | 0.05 | 0.05 | 35 | 1008.2 |
| 20260505214651 | 25 | 169 | 4.8 | 14.5 | 0.00 | 0.05 | 0.05 | 34 | 1008.3 |
| 20260505214148 | 25 | 277 | 8.0 | 17.7 | 0.00 | 0.05 | 0.05 | 34 | 1008.3 |
| 20260505213646 | 25 | 8 | 3.2 | 14.5 | 0.00 | 0.05 | 0.05 | 34 | 1008.3 |
| 20260505213143 | 25 | 88 | 4.8 | 16.1 | 0.00 | 0.05 | 0.05 | 34 | 1008.4 |
| 20260505212638 | 26 | 149 | 0.0 | 11.3 | 0.00 | 0.05 | 0.05 | 34 | 1008.4 |
| 20260505212136 | 26 | 307 | 8.0 | 20.9 | 0.00 | 0.05 | 0.05 | 34 | 1008.3 |
| 20260505211633 | 26 | 294 | 17.7 | 22.5 | 0.00 | 0.05 | 0.05 | 33 | 1008.1 |
| 20260505211130 | 26 | 324 | 4.8 | 20.9 | 0.00 | 0.05 | 0.05 | 34 | 1008.0 |
| 20260505210627 | 26 | 22 | 3.2 | 14.5 | 0.00 | 0.05 | 0.05 | 33 | 1008.1 |
| 20260505210124 | 25 | 296 | 9.7 | 17.7 | 0.00 | 0.05 | 0.05 | 34 | 1008.0 |
| 20260505205621 | 25 | 319 | 6.4 | 16.1 | 0.00 | 0.05 | 0.05 | 33 | 1007.8 |
| 20260505205119 | 25 | 214 | 3.2 | 16.1 | 0.00 | 0.05 | 0.05 | 33 | 1007.8 |
| 20260505204616 | 25 | 93 | 8.0 | 24.1 | 0.00 | 0.05 | 0.05 | 31 | 1007.9 |
| 20260505204114 | 26 | 321 | 4.8 | 14.5 | 0.00 | 0.05 | 0.05 | 31 | 1008.0 |
| 20260505203610 | 27 | 321 | 9.7 | 12.9 | 0.00 | 0.05 | 0.05 | 30 | 1007.8 |
| 20260505203107 | 27 | 43 | 9.7 | 14.5 | 0.00 | 0.05 | 0.05 | 30 | 1008.1 |
| 20260505202603 | 27 | 330 | 6.4 | 20.9 | 0.00 | 0.05 | 0.05 | 31 | 1007.9 |
| 20260505202059 | 27 | 192 | 4.8 | 24.1 | 0.00 | 0.05 | 0.05 | 30 | 1008.0 |
| 20260505201556 | 27 | 330 | 6.4 | 14.5 | 0.00 | 0.05 | 0.05 | 30 | 1007.9 |
| 20260505201054 | 27 | 306 | 17.7 | 25.7 | 0.00 | 0.05 | 0.05 | 30 | 1008.1 |
| 20260505200551 | 27 | 331 | 8.0 | 19.3 | 0.00 | 0.05 | 0.05 | 31 | 1008.0 |
| 20260505200048 | 27 | 21 | 3.2 | 19.3 | 0.00 | 0.05 | 0.05 | 32 | 1008.2 |
| 20260505195544 | 27 | 253 | 14.5 | 32.2 | 0.00 | 0.05 | 0.05 | 31 | 1007.9 |
| 20260505195042 | 27 | 4 | 6.4 | 29.0 | 0.00 | 0.05 | 0.05 | 30 | 1008.2 |
| 20260505194539 | 27 | 301 | 3.2 | 11.3 | 0.00 | 0.05 | 0.05 | 30 | 1008.3 |
| 20260505194034 | 27 | 16 | 9.7 | 22.5 | 0.00 | 0.05 | 0.05 | 30 | 1008.0 |
| 20260505193531 | 27 | 240 | 9.7 | 20.9 | 0.00 | 0.05 | 0.05 | 30 | 1008.1 |
| 20260505193029 | 27 | 271 | 1.6 | 12.9 | 0.00 | 0.05 | 0.05 | 33 | 1008.1 |
| 20260505192527 | 26 | 176 | 6.4 | 16.1 | 0.00 | 0.05 | 0.05 | 33 | 1008.3 |
| 20260505192024 | 27 | 295 | 6.4 | 17.7 | 0.00 | 0.05 | 0.05 | 32 | 1008.1 |
| 20260505191522 | 27 | 273 | 6.4 | 19.3 | 0.00 | 0.05 | 0.05 | 31 | 1008.2 |
| 20260505191020 | 27 | 12 | 17.7 | 17.7 | 0.00 | 0.05 | 0.05 | 31 | 1008.5 |
| 20260505190515 | 27 | 297 | 12.9 | 14.5 | 0.00 | 0.05 | 0.05 | 33 | 1008.3 |
| 20260505190011 | 27 | 314 | 8.0 | 19.3 | 0.00 | 0.05 | 0.05 | 35 | 1008.5 |
| 20260505185508 | 27 | 325 | 12.9 | 19.3 | 0.00 | 0.05 | 0.05 | 34 | 1008.5 |
| 20260505185003 | 27 | 264 | 8.0 | 20.9 | 0.00 | 0.05 | 0.05 | 35 | 1008.5 |
| 20260505184455 | 27 | 223 | 1.6 | 14.5 | 0.00 | 0.05 | 0.05 | 35 | 1008.7 |
| 20260505183952 | 26 | 298 | 1.6 | 25.7 | 0.00 | 0.05 | 0.05 | 36 | 1008.8 |
| 20260505183449 | 27 | 248 | 8.0 | 32.2 | 0.00 | 0.05 | 0.05 | 35 | 1008.9 |
| 20260505182945 | 25 | 148 | 4.8 | 14.5 | 0.00 | 0.05 | 0.05 | 37 | 1008.8 |
| 20260505182442 | 26 | 239 | 8.0 | 16.1 | 0.00 | 0.05 | 0.05 | 38 | 1009.0 |
| 20260505181938 | 27 | 225 | 4.8 | 14.5 | 0.00 | 0.05 | 0.05 | 35 | 1008.9 |
| 20260505181436 | 27 | 278 | 9.7 | 11.3 | 0.00 | 0.05 | 0.05 | 36 | 1009.3 |
| 20260505180933 | 27 | 287 | 11.3 | 12.9 | 0.00 | 0.05 | 0.05 | 36 | 1009.3 |
| 20260505180429 | 27 | 298 | 4.8 | 11.3 | 0.00 | 0.05 | 0.05 | 37 | 1009.4 |
| 20260505175926 | 26 | 318 | 8.0 | 14.5 | 0.00 | 0.05 | 0.05 | 36 | 1009.3 |
| 20260505175422 | 26 | 131 | 4.8 | 24.1 | 0.00 | 0.05 | 0.05 | 36 | 1009.2 |
| 20260505174918 | 27 | 244 | 6.4 | 22.5 | 0.00 | 0.05 | 0.05 | 36 | 1009.4 |
| 20260505174416 | 27 | 265 | 11.3 | 17.7 | 0.00 | 0.05 | 0.05 | 35 | 1009.2 |
| 20260505173912 | 26 | 340 | 11.3 | 22.5 | 0.00 | 0.05 | 0.05 | 36 | 1009.5 |
| 20260505173409 | 26 | 299 | 8.0 | 17.7 | 0.00 | 0.05 | 0.05 | 38 | 1009.3 |
| 20260505172906 | 26 | 274 | 4.8 | 11.3 | 0.00 | 0.05 | 0.05 | 38 | 1009.5 |
| 20260505172404 | 26 | 292 | 4.8 | 12.9 | 0.00 | 0.05 | 0.05 | 41 | 1009.6 |
| 20260505171903 | 25 | 104 | 4.8 | 12.9 | 0.00 | 0.05 | 0.05 | 42 | 1009.5 |
| 20260505171400 | 26 | 289 | 3.2 | 8.0 | 0.00 | 0.05 | 0.05 | 42 | 1009.7 |
| 20260505170856 | 25 | 128 | 4.8 | 16.1 | 0.00 | 0.05 | 0.05 | 44 | 1009.5 |
| 20260505170354 | 25 | 271 | 4.8 | 20.9 | 0.00 | 0.05 | 0.05 | 42 | 1009.9 |
| 20260505165849 | 26 | 56 | 6.4 | 17.7 | 0.00 | 0.05 | 0.05 | 42 | 1009.7 |
| 20260505165344 | 26 | 226 | 8.0 | 19.3 | 0.00 | 0.05 | 0.05 | 41 | 1010.0 |
| 20260505164840 | 25 | 73 | 3.2 | 16.1 | 0.00 | 0.05 | 0.05 | 43 | 1010.2 |
| 20260505164337 | 26 | 308 | 6.4 | 11.3 | 0.00 | 0.05 | 0.05 | 42 | 1010.1 |
| 20260505163836 | 25 | 284 | 8.0 | 11.3 | 0.00 | 0.05 | 0.05 | 43 | 1010.1 |
| 20260505163334 | 25 | 232 | 3.2 | 14.5 | 0.00 | 0.05 | 0.05 | 44 | 1009.9 |
| 20260505162832 | 26 | 292 | 1.6 | 8.0 | 0.00 | 0.05 | 0.05 | 47 | 1010.0 |
| 20260505162328 | 25 | 358 | 3.2 | 8.0 | 0.00 | 0.05 | 0.05 | 46 | 1010.3 |
| 20260505161825 | 25 | 353 | 6.4 | 9.7 | 0.00 | 0.05 | 0.05 | 45 | 1010.2 |
| 20260505161322 | 25 | 136 | 1.6 | 11.3 | 0.00 | 0.05 | 0.05 | 45 | 1010.2 |
| 20260505160820 | 25 | 297 | 6.4 | 8.0 | 0.00 | 0.05 | 0.05 | 48 | 1010.4 |
| 20260505160318 | 25 | 323 | 4.8 | 11.3 | 0.00 | 0.05 | 0.05 | 46 | 1010.3 |
| 20260505153256 | 23 | 89 | 3.2 | 11.3 | 0.00 | 0.05 | 0.05 | 49 | 1011.0 |
| 20260505152753 | 22 | 180 | 3.2 | 11.3 | 0.00 | 0.05 | 0.05 | 50 | 1011.0 |
| 20260505152249 | 22 | 253 | 4.8 | 9.7 | 0.00 | 0.05 | 0.05 | 51 | 1011.0 |
| 20260505151744 | 23 | 322 | 12.9 | 17.7 | 0.00 | 0.05 | 0.05 | 49 | 1011.0 |
| 20260505151242 | 22 | 325 | 0.0 | 20.9 | 0.00 | 0.05 | 0.05 | 53 | 1011.0 |
| 20260505150738 | 22 | 318 | 6.4 | 8.0 | 0.00 | 0.05 | 0.05 | 52 | 1011.0 |
| 20260505150235 | 22 | 311 | 4.8 | 4.8 | 0.00 | 0.05 | 0.05 | 53 | 1011.1 |
| 20260505140200 | 20 | 279 | 4.8 | 12.9 | 0.00 | 0.05 | 0.05 | 58 | 1011.4 |
| 20260505130124 | 18 | 74 | 4.8 | 6.4 | 0.00 | 0.05 | 0.05 | 66 | 1011.6 |
| 20260505124613 | 17 | 208 | 4.8 | 11.3 | 0.00 | 0.05 | 0.05 | 68 | 1011.3 |
| 20260505124110 | 17 | 199 | 3.2 | 9.7 | 0.00 | 0.05 | 0.05 | 69 | 1010.9 |
| 20260505123606 | 17 | 259 | 0.0 | 8.0 | 0.00 | 0.05 | 0.05 | 71 | 1011.2 |
| 20260505123103 | 16 | 225 | 4.8 | 12.9 | 0.00 | 0.05 | 0.05 | 69 | 1011.0 |
| 20260505122559 | 16 | 4 | 4.8 | 9.7 | 0.00 | 0.05 | 0.05 | 72 | 1010.9 |
| 20260505122056 | 16 | 129 | 0.0 | 6.4 | 0.00 | 0.05 | 0.05 | 72 | 1010.9 |
| 20260505121553 | 16 | 198 | 4.8 | 8.0 | 0.00 | 0.05 | 0.05 | 73 | 1010.6 |
| 20260505121050 | 16 | 179 | 0.0 | 3.2 | 0.00 | 0.05 | 0.05 | 75 | 1010.7 |
| 20260505120546 | 16 | 301 | 4.8 | 6.4 | 0.00 | 0.05 | 0.05 | 78 | 1010.9 |
| 20260505120042 | 15 | 122 | 4.8 | 6.4 | 0.00 | 0.05 | 0.05 | 80 | 1010.9 |
| 20260505115536 | 15 | 137 | 1.6 | 6.4 | 0.00 | 0.05 | 0.05 | 83 | 1010.7 |
| 20260505115034 | 15 | 169 | 0.0 | 6.4 | 0.00 | 0.05 | 0.05 | 84 | 1010.9 |
| 20260505114531 | 14 | 51 | 4.8 | 8.0 | 0.00 | 0.05 | 0.05 | 85 | 1010.9 |
| 20260505114027 | 14 | 299 | 0.0 | 6.4 | 0.00 | 0.05 | 0.05 | 86 | 1011.2 |
| 20260505113524 | 13 | 94 | 4.8 | 6.4 | 0.00 | 0.05 | 0.05 | 91 | 1010.9 |
| 20260505113020 | 13 | 13 | 0.0 | 3.2 | 0.00 | 0.05 | 0.05 | 92 | 1011.0 |
| 20260505112516 | 13 | 336 | 0.0 | 4.8 | 0.00 | 0.05 | 0.05 | 93 | 1011.3 |
| 20260505112014 | 13 | 89 | 0.0 | 3.2 | 0.00 | 0.05 | 0.05 | 94 | 1011.2 |
| 20260505111508 | 12 | 108 | 3.2 | 9.7 | 0.00 | 0.05 | 0.05 | 95 | 1010.9 |
| 20260505111005 | 12 | 76 | 4.8 | 8.0 | 0.05 | 0.05 | 0.05 | 95 | 1010.7 |
| 20260505110502 | 12 | 120 | 3.2 | 8.0 | 0.05 | 0.05 | 0.05 | 95 | 1010.5 |
| 20260505101933 | 12 | 93 | 6.4 | 8.0 | 0.05 | 0.03 | 0.03 | 89 | 1010.5 |
| 20260505101427 | 12 | 105 | 4.8 | 6.4 | 0.13 | 0.03 | 0.03 | 85 | 1010.9 |
| 20260505100923 | 13 | 167 | 3.2 | 4.8 | 0.05 | 0.00 | 0.00 | 83 | 1010.9 |
| 20260505100420 | 13 | 327 | 4.8 | 6.4 | 0.00 | 0.00 | 0.00 | 78 | 1011.2 |
| 20260505095915 | 13 | 116 | 0.0 | 9.7 | 0.00 | 0.00 | 0.00 | 75 | 1010.9 |
| 20260505095413 | 13 | 49 | 0.0 | 6.4 | 0.00 | 0.00 | 0.00 | 74 | 1010.9 |
| 20260505094909 | 13 | 253 | 1.6 | 4.8 | 0.00 | 0.00 | 0.00 | 73 | 1010.6 |
| 20260505094406 | 13 | 214 | 1.6 | 4.8 | 0.00 | 0.00 | 0.00 | 74 | 1010.7 |
| 20260505093902 | 12 | 322 | 3.2 | 4.8 | 0.00 | 0.00 | 0.00 | 75 | 1010.6 |
| 20260505093359 | 12 | 55 | 0.0 | 3.2 | 0.00 | 0.00 | 0.00 | 76 | 1010.6 |
| 20260505092856 | 12 | 61 | 1.6 | 4.8 | 0.00 | 0.00 | 0.00 | 75 | 1010.6 |
| 20260505092354 | 12 | 89 | 1.6 | 3.2 | 0.00 | 0.00 | 0.00 | 74 | 1010.5 |
| 20260505091851 | 12 | 89 | 0.0 | 4.8 | 0.00 | 0.00 | 0.00 | 74 | 1010.6 |
| 20260505091349 | 12 | 44 | 0.0 | 3.2 | 0.00 | 0.00 | 0.00 | 73 | 1010.6 |
| 20260505090847 | 12 | 126 | 0.0 | 1.6 | 0.00 | 0.00 | 0.00 | 72 | 1010.3 |
| 20260505090345 | 12 | 40 | 3.2 | 4.8 | 0.00 | 0.00 | 0.00 | 72 | 1010.5 |
| 20260505085842 | 13 | 140 | 4.8 | 6.4 | 0.00 | 0.00 | 0.00 | 71 | 1010.4 |
| 20260505085340 | 12 | 44 | 4.8 | 9.7 | 0.00 | 0.00 | 0.00 | 71 | 1010.3 |
| 20260505084837 | 12 | 125 | 0.0 | 4.8 | 0.00 | 0.00 | 0.00 | 72 | 1010.2 |
| 20260505084336 | 12 | 111 | 3.2 | 4.8 | 0.00 | 0.00 | 0.00 | 73 | 1010.2 |
| 20260505083833 | 12 | 157 | 0.0 | 6.4 | 0.00 | 0.00 | 0.00 | 73 | 1010.1 |
| 20260505083330 | 12 | 111 | 4.8 | 4.8 | 0.00 | 0.00 | 0.00 | 72 | 1010.0 |
| 20260505082826 | 12 | 101 | 3.2 | 4.8 | 0.00 | 0.00 | 0.00 | 71 | 1010.1 |
| 20260505082323 | 12 | 101 | 3.2 | 4.8 | 0.00 | 0.00 | 0.00 | 70 | 1010.1 |
| 20260505081819 | 12 | 117 | 6.4 | 8.0 | 0.00 | 0.00 | 0.00 | 70 | 1010.1 |
| 20260505081316 | 13 | 178 | 3.2 | 6.4 | 0.00 | 0.00 | 0.00 | 69 | 1009.9 |
| 20260505080813 | 13 | 124 | 3.2 | 4.8 | 0.00 | 0.00 | 0.00 | 69 | 1009.9 |
| 20260505080309 | 13 | 154 | 0.0 | 9.7 | 0.00 | 0.00 | 0.00 | 69 | 1009.9 |
| 20260505075804 | 13 | 56 | 3.2 | 3.2 | 0.00 | 0.00 | 0.00 | 69 | 1010.3 |
| 20260505075304 | 13 | 118 | 1.6 | 6.4 | 0.00 | 0.00 | 0.00 | 68 | 1010.2 |
| 20260505074759 | 13 | 60 | 0.0 | 4.8 | 0.00 | 0.00 | 0.00 | 67 | 1010.0 |
| 20260505074256 | 13 | 293 | 0.0 | 4.8 | 0.00 | 0.00 | 0.00 | 66 | 1010.3 |
| 20260505073753 | 13 | 55 | 0.0 | 6.4 | 0.00 | 0.00 | 0.00 | 66 | 1010.4 |
| 20260505073251 | 13 | 296 | 0.0 | 4.8 | 0.00 | 0.00 | 0.00 | 66 | 1010.2 |
| 20260505072748 | 13 | 65 | 4.8 | 8.0 | 0.00 | 0.00 | 0.00 | 66 | 1010.2 |
| 20260505072244 | 13 | 186 | 0.0 | 4.8 | 0.00 | 0.00 | 0.00 | 66 | 1010.1 |
| 20260505071739 | 13 | 88 | 1.6 | 6.4 | 0.00 | 0.00 | 0.00 | 65 | 1010.1 |
| 20260505071236 | 13 | 82 | 4.8 | 6.4 | 0.00 | 0.00 | 0.00 | 66 | 1009.9 |
| 20260505070734 | 13 | 119 | 1.6 | 4.8 | 0.00 | 0.00 | 0.00 | 65 | 1010.3 |
| 20260505070230 | 13 | 154 | 0.0 | 8.0 | 0.00 | 0.00 | 0.00 | 65 | 1010.2 |
| 20260505065726 | 13 | 82 | 8.0 | 14.5 | 0.00 | 0.00 | 0.00 | 64 | 1010.2 |
| 20260505065223 | 13 | 159 | 3.2 | 11.3 | 0.00 | 0.00 | 0.00 | 63 | 1010.0 |
| 20260505064720 | 13 | 39 | 4.8 | 8.0 | 0.00 | 0.00 | 0.00 | 64 | 1010.0 |
| 20260505064218 | 13 | 352 | 1.6 | 9.7 | 0.00 | 0.00 | 0.00 | 63 | 1010.2 |
| 20260505063715 | 13 | 127 | 0.0 | 4.8 | 0.00 | 0.00 | 0.00 | 63 | 1010.3 |
| 20260505063211 | 14 | 329 | 3.2 | 6.4 | 0.00 | 0.00 | 0.00 | 62 | 1010.2 |
| 20260505062707 | 14 | 324 | 1.6 | 9.7 | 0.00 | 0.00 | 0.00 | 62 | 1010.1 |
| 20260505062206 | 14 | 323 | 1.6 | 8.0 | 0.00 | 0.00 | 0.00 | 61 | 1010.1 |
| 20260505061702 | 14 | 165 | 1.6 | 3.2 | 0.00 | 0.00 | 0.00 | 62 | 1010.2 |
| 20260505061200 | 14 | 67 | 4.8 | 9.7 | 0.00 | 0.00 | 0.00 | 60 | 1010.1 |
| 20260505060657 | 14 | 108 | 1.6 | 6.4 | 0.00 | 0.00 | 0.00 | 62 | 1010.1 |
| 20260505060154 | 14 | 350 | 4.8 | 6.4 | 0.00 | 0.00 | 0.00 | 61 | 1010.1 |
| 20260505055649 | 14 | 59 | 3.2 | 3.2 | 0.00 | 0.00 | 0.00 | 61 | 1010.5 |
| 20260505055146 | 14 | 313 | 0.0 | 8.0 | 0.00 | 0.00 | 0.00 | 61 | 1010.3 |
| 20260505054643 | 14 | 64 | 4.8 | 4.8 | 0.00 | 0.00 | 0.00 | 60 | 1010.5 |
| 20260505054141 | 14 | 127 | 3.2 | 6.4 | 0.00 | 0.00 | 0.00 | 60 | 1010.2 |
| 20260505053639 | 15 | 323 | 3.2 | 9.7 | 0.00 | 0.00 | 0.00 | 57 | 1010.4 |
| 20260505053135 | 15 | 12 | 4.8 | 6.4 | 0.00 | 0.00 | 0.00 | 56 | 1010.5 |
| 20260505052632 | 15 | 346 | 4.8 | 9.7 | 0.00 | 0.00 | 0.00 | 57 | 1010.2 |
| 20260505052130 | 15 | 279 | 1.6 | 6.4 | 0.00 | 0.00 | 0.00 | 56 | 1010.3 |
| 20260505051626 | 15 | 0 | 3.2 | 6.4 | 0.00 | 0.00 | 0.00 | 56 | 1010.1 |
| 20260505051125 | 14 | 340 | 3.2 | 6.4 | 0.00 | 0.00 | 0.00 | 57 | 1010.3 |
| 20260505050622 | 13 | 262 | 3.2 | 6.4 | 0.00 | 0.00 | 0.00 | 59 | 1010.3 |
| 20260505050120 | 14 | 26 | 3.2 | 6.4 | 0.00 | 0.00 | 0.00 | 59 | 1010.3 |
| 20260505041550 | 15 | 267 | 3.2 | 9.7 | 0.00 | 0.00 | 0.00 | 56 | 1010.2 |
| 20260505041047 | 15 | 47 | 3.2 | 11.3 | 0.00 | 0.00 | 0.00 | 55 | 1010.1 |
| 20260505040544 | 15 | 101 | 6.4 | 8.0 | 0.00 | 0.00 | 0.00 | 55 | 1010.2 |
| 20260505040041 | 15 | 14 | 1.6 | 8.0 | 0.00 | 0.00 | 0.00 | 55 | 1010.2 |
| 20260505035537 | 14 | 96 | 4.8 | 6.4 | 0.00 | 0.00 | 0.00 | 57 | 1010.1 |
| 20260505035034 | 14 | 116 | 4.8 | 6.4 | 0.00 | 0.00 | 0.00 | 58 | 1010.3 |
| 20260505034530 | 15 | 92 | 1.6 | 6.4 | 0.00 | 0.00 | 0.00 | 56 | 1010.2 |
| 20260505034027 | 15 | 95 | 4.8 | 6.4 | 0.00 | 0.00 | 0.00 | 56 | 1010.2 |
| 20260505033525 | 15 | 19 | 4.8 | 8.0 | 0.00 | 0.00 | 0.00 | 56 | 1010.4 |
| 20260505033023 | 15 | 225 | 8.0 | 17.7 | 0.00 | 0.00 | 0.00 | 55 | 1010.5 |
| 20260505032520 | 15 | 12 | 4.8 | 6.4 | 0.00 | 0.00 | 0.00 | 54 | 1010.6 |
| 20260505032017 | 15 | 14 | 3.2 | 6.4 | 0.00 | 0.00 | 0.00 | 56 | 1010.6 |
| 20260505031514 | 15 | 64 | 4.8 | 6.4 | 0.00 | 0.00 | 0.00 | 55 | 1010.4 |
| 20260505031010 | 15 | 106 | 4.8 | 9.7 | 0.00 | 0.00 | 0.00 | 54 | 1010.6 |
| 20260505030507 | 15 | 134 | 3.2 | 9.7 | 0.00 | 0.00 | 0.00 | 57 | 1010.6 |
| 20260505030003 | 14 | 50 | 0.0 | 16.1 | 0.00 | 0.00 | 0.00 | 55 | 1010.7 |
| 20260505025459 | 14 | 43 | 3.2 | 4.8 | 0.00 | 0.00 | 0.00 | 57 | 1010.7 |
| 20260505024958 | 14 | 111 | 3.2 | 6.4 | 0.00 | 0.00 | 0.00 | 57 | 1010.4 |
| 20260505024454 | 14 | 68 | 3.2 | 4.8 | 0.00 | 0.00 | 0.00 | 58 | 1010.6 |
| 20260505023952 | 14 | 166 | 1.6 | 8.0 | 0.00 | 0.00 | 0.00 | 57 | 1010.5 |
| 20260505023449 | 14 | 72 | 3.2 | 9.7 | 0.00 | 0.00 | 0.00 | 57 | 1010.7 |
| 20260505022946 | 14 | 134 | 0.0 | 4.8 | 0.00 | 0.00 | 0.00 | 58 | 1010.6 |
| 20260505022444 | 15 | 104 | 3.2 | 6.4 | 0.00 | 0.00 | 0.00 | 56 | 1011.0 |
| 20260505021941 | 15 | 85 | 4.8 | 6.4 | 0.00 | 0.00 | 0.00 | 54 | 1010.6 |
| 20260505021437 | 15 | 101 | 3.2 | 6.4 | 0.00 | 0.00 | 0.00 | 53 | 1010.7 |
| 20260505020933 | 15 | 28 | 3.2 | 6.4 | 0.00 | 0.00 | 0.00 | 51 | 1010.5 |
| 20260505020428 | 15 | 21 | 3.2 | 4.8 | 0.00 | 0.00 | 0.00 | 51 | 1010.7 |
| 20260505015925 | 16 | 289 | 0.0 | 6.4 | 0.00 | 0.00 | 0.00 | 49 | 1010.9 |
| 20260505015423 | 16 | 108 | 3.2 | 8.0 | 0.00 | 0.00 | 0.00 | 50 | 1011.0 |
| 20260505014920 | 16 | 352 | 0.0 | 6.4 | 0.00 | 0.00 | 0.00 | 49 | 1010.7 |
| 20260505014416 | 16 | 111 | 0.0 | 6.4 | 0.00 | 0.00 | 0.00 | 49 | 1010.7 |
| 20260505013914 | 16 | 8 | 4.8 | 4.8 | 0.00 | 0.00 | 0.00 | 48 | 1010.6 |
| 20260505013410 | 16 | 44 | 8.0 | 9.7 | 0.00 | 0.00 | 0.00 | 48 | 1010.7 |
| 20260505012909 | 16 | 302 | 3.2 | 6.4 | 0.00 | 0.00 | 0.00 | 49 | 1010.7 |
| 20260505012406 | 16 | 3 | 3.2 | 4.8 | 0.00 | 0.00 | 0.00 | 49 | 1010.6 |
| 20260505011902 | 16 | 229 | 4.8 | 8.0 | 0.00 | 0.00 | 0.00 | 47 | 1010.4 |
| 20260505011359 | 17 | 309 | 0.0 | 4.8 | 0.00 | 0.00 | 0.00 | 47 | 1010.5 |
| 20260505010855 | 17 | 159 | 0.0 | 8.0 | 0.00 | 0.00 | 0.00 | 47 | 1010.5 |
| 20260505010351 | 17 | 23 | 4.8 | 8.0 | 0.00 | 0.00 | 0.00 | 47 | 1010.4 |
| 20260505005847 | 17 | 318 | 0.0 | 6.4 | 0.00 | 0.00 | 0.00 | 47 | 1010.3 |
| 20260505005344 | 17 | 16 | 3.2 | 4.8 | 0.00 | 0.00 | 0.00 | 48 | 1010.2 |
| 20260505004842 | 17 | 22 | 1.6 | 6.4 | 0.00 | 0.00 | 0.00 | 47 | 1010.2 |
| 20260505004338 | 17 | 173 | 4.8 | 16.1 | 0.00 | 0.00 | 0.00 | 46 | 1010.1 |
| 20260505003836 | 17 | 12 | 8.0 | 8.0 | 0.00 | 0.00 | 0.00 | 47 | 1010.2 |
| 20260505003333 | 17 | 254 | 4.8 | 4.8 | 0.00 | 0.00 | 0.00 | 46 | 1010.3 |
| 20260505002828 | 17 | 345 | 3.2 | 9.7 | 0.00 | 0.00 | 0.00 | 47 | 1010.2 |